Location: Alafon
(8.4500°N, 4.2333°E)
Time: 00:21:11
(UTC+00:00)

Explorer 7 - Pass Details

Date: 29 July 2021
Orbit: 484 x 676 km, 50.3° (Epoch: 22 September)

Event Time Altitude Azimuth Distance (km) Brightness Sun altitude
Rises 03:13:06 0° 218° (SW) 2,555 - -33.0°
Reaches altitude 10° 03:15:17 10° 219° (SW) 1,662 - -32.5°
Maximum altitude 03:19:01 83° 307° (NW) 487 - -31.7°
Exits shadow 03:21:51 16° 35° (NE) 1,304 9.3 -31.1°
Drops below altitude 10° 03:22:44 10° 36° (NE) 1,656 10.0 -30.9°
Sets 03:24:55 0° 37° (NE) 2,546 11.1 -30.4°
